contact:dominique.lefevre@mio.osupytheas.fr, maurice.libes@osupytheas.fr, didier.mallarino@osupytheas.fr
Project:EMSO http://www.emso-fr.org/EMSO-France
Depth: 2436.0 m
Title:EMSO Ligure Ouest : Data MII capteur MICROCAT
DateTime_Computer,Latitude,Longitude,Temperature,Conductivity,Pressure,DateTime_Instrument
DateTime_Computer,Latitude,Longitude,degC,S m-1,dbar,DateTime_Instrument
2021-11-29T00:00:31Z,42.805,6.029,13.2989,4.60009,2470.227,2021-11-29T02:01:58Z
2021-11-29T00:03:34Z,42.805,6.029,13.2993,4.60009,2470.264,2021-11-29T02:05:01Z
2021-11-29T00:06:37Z,42.805,6.029,13.2989,4.60008,2470.24,2021-11-29T02:08:04Z
2021-11-29T00:09:40Z,42.805,6.029,13.2991,4.60011,2470.24,2021-11-29T02:11:07Z
2021-11-29T00:12:44Z,42.805,6.029,13.2990,4.60009,2470.25,2021-11-29T02:14:11Z
2021-11-29T00:15:47Z,42.805,6.029,13.2991,4.60009,2470.264,2021-11-29T02:17:14Z
2021-11-29T00:18:50Z,42.805,6.029,13.2987,4.60008,2470.264,2021-11-29T02:20:17Z
2021-11-29T00:21:53Z,42.805,6.029,13.2990,4.60008,2470.25,2021-11-29T02:23:20Z
2021-11-29T00:24:56Z,42.805,6.029,13.2988,4.60009,2470.24,2021-11-29T02:26:23Z
2021-11-29T00:27:59Z,42.805,6.029,13.2992,4.60009,2470.24,2021-11-29T02:29:26Z
2021-11-29T00:31:02Z,42.805,6.029,13.2991,4.60009,2470.264,2021-11-29T02:32:29Z
2021-11-29T00:34:05Z,42.805,6.029,13.2990,4.60008,2470.25,2021-11-29T02:35:32Z
2021-11-29T00:37:08Z,42.805,6.029,13.2985,4.60009,2470.227,2021-11-29T02:38:36Z
2021-11-29T00:40:12Z,42.805,6.029,13.2991,4.60009,2470.24,2021-11-29T02:41:39Z
2021-11-29T00:43:15Z,42.805,6.029,13.2991,4.60010,2470.264,2021-11-29T02:44:42Z
2021-11-29T00:46:18Z,42.805,6.029,13.2990,4.60009,2470.25,2021-11-29T02:47:45Z
2021-11-29T00:49:21Z,42.805,6.029,13.2989,4.60010,2470.227,2021-11-29T02:50:48Z
2021-11-29T00:52:24Z,42.805,6.029,13.2994,4.60009,2470.264,2021-11-29T02:53:51Z
2021-11-29T00:55:27Z,42.805,6.029,13.2990,4.60009,2470.25,2021-11-29T02:56:54Z
2021-11-29T00:58:30Z,42.805,6.029,13.2985,4.60010,2470.25,2021-11-29T02:59:57Z
2021-11-29T01:01:33Z,42.805,6.029,13.2990,4.60009,2470.25,2021-11-29T03:03:01Z
2021-11-29T01:04:37Z,42.805,6.029,13.2988,4.60009,2470.24,2021-11-29T03:06:04Z
2021-11-29T01:07:40Z,42.805,6.029,13.2990,4.60009,2470.264,2021-11-29T03:09:07Z
2021-11-29T01:10:43Z,42.805,6.029,13.2991,4.60010,2470.24,2021-11-29T03:12:10Z
2021-11-29T01:13:46Z,42.805,6.029,13.2986,4.60010,2470.287,2021-11-29T03:15:13Z
2021-11-29T01:16:49Z,42.805,6.029,13.2992,4.60009,2470.227,2021-11-29T03:18:16Z
2021-11-29T01:19:52Z,42.805,6.029,13.2991,4.60009,2470.24,2021-11-29T03:21:19Z
2021-11-29T01:22:55Z,42.805,6.029,13.2992,4.60009,2470.25,2021-11-29T03:24:22Z
2021-11-29T01:25:58Z,42.805,6.029,13.2991,4.60009,2470.24,2021-11-29T03:27:26Z
2021-11-29T01:29:02Z,42.805,6.029,13.2986,4.60010,2470.287,2021-11-29T03:30:29Z
2021-11-29T01:32:05Z,42.805,6.029,13.2990,4.60009,2470.273,2021-11-29T03:33:32Z
2021-11-29T01:35:08Z,42.805,6.029,13.2989,4.60009,2470.25,2021-11-29T03:36:35Z
2021-11-29T01:38:11Z,42.805,6.029,13.2989,4.60009,2470.25,2021-11-29T03:39:38Z
2021-11-29T01:41:14Z,42.805,6.029,13.2990,4.60009,2470.25,2021-11-29T03:42:41Z
2021-11-29T01:44:17Z,42.805,6.029,13.2988,4.60009,2470.25,2021-11-29T03:45:44Z
2021-11-29T01:47:20Z,42.805,6.029,13.2990,4.60009,2470.25,2021-11-29T03:48:47Z
2021-11-29T01:50:23Z,42.805,6.029,13.2986,4.60009,2470.273,2021-11-29T03:51:51Z
2021-11-29T01:53:27Z,42.805,6.029,13.2988,4.60008,2470.203,2021-11-29T03:54:54Z
2021-11-29T01:56:30Z,42.805,6.029,13.2988,4.60009,2470.273,2021-11-29T03:57:57Z
2021-11-29T01:59:33Z,42.805,6.029,13.2993,4.60009,2470.273,2021-11-29T04:01:00Z
2021-11-29T02:02:36Z,42.805,6.029,13.2988,4.60008,2470.31,2021-11-29T04:04:03Z
2021-11-29T02:05:39Z,42.805,6.029,13.2983,4.60009,2470.24,2021-11-29T04:07:06Z
2021-11-29T02:08:42Z,42.805,6.029,13.2984,4.60009,2470.31,2021-11-29T04:10:09Z
2021-11-29T02:11:45Z,42.805,6.029,13.2992,4.60008,2470.24,2021-11-29T04:13:12Z
2021-11-29T02:14:48Z,42.805,6.029,13.2987,4.60009,2470.287,2021-11-29T04:16:16Z
2021-11-29T02:17:52Z,42.805,6.029,13.2990,4.60010,2470.25,2021-11-29T04:19:19Z
2021-11-29T02:20:55Z,42.805,6.029,13.2984,4.60009,2470.273,2021-11-29T04:22:22Z
2021-11-29T02:23:58Z,42.805,6.029,13.2988,4.60009,2470.297,2021-11-29T04:25:25Z
2021-11-29T02:27:01Z,42.805,6.029,13.2988,4.60009,2470.273,2021-11-29T04:28:28Z
2021-11-29T02:30:04Z,42.805,6.029,13.2990,4.60011,2470.273,2021-11-29T04:31:31Z
2021-11-29T02:33:07Z,42.805,6.029,13.2990,4.60014,2470.297,2021-11-29T04:34:34Z
2021-11-29T02:36:10Z,42.805,6.029,13.2990,4.60009,2470.31,2021-11-29T04:37:37Z
2021-11-29T02:39:13Z,42.805,6.029,13.2993,4.60009,2470.297,2021-11-29T04:40:41Z
2021-11-29T02:42:17Z,42.805,6.029,13.2987,4.60009,2470.297,2021-11-29T04:43:44Z
2021-11-29T02:45:20Z,42.805,6.029,13.2991,4.60008,2470.264,2021-11-29T04:46:47Z
2021-11-29T02:48:23Z,42.805,6.029,13.2990,4.60008,2470.31,2021-11-29T04:49:50Z
2021-11-29T02:51:26Z,42.805,6.029,13.2991,4.60008,2470.297,2021-11-29T04:52:53Z
2021-11-29T02:54:29Z,42.805,6.029,13.2986,4.60009,2470.273,2021-11-29T04:55:56Z
2021-11-29T02:57:32Z,42.805,6.029,13.2991,4.60010,2470.287,2021-11-29T04:58:59Z
2021-11-29T03:00:35Z,42.805,6.029,13.2990,4.60008,2470.32,2021-11-29T05:02:02Z
2021-11-29T03:03:38Z,42.805,6.029,13.2992,4.60009,2470.31,2021-11-29T05:05:06Z
2021-11-29T03:06:42Z,42.805,6.029,13.2989,4.60007,2470.297,2021-11-29T05:08:09Z
2021-11-29T03:09:45Z,42.805,6.029,13.2987,4.60008,2470.32,2021-11-29T05:11:12Z
2021-11-29T03:12:48Z,42.805,6.029,13.2986,4.60008,2470.297,2021-11-29T05:14:15Z
2021-11-29T03:15:51Z,42.805,6.029,13.2986,4.60009,2470.287,2021-11-29T05:17:18Z
2021-11-29T03:18:54Z,42.805,6.029,13.2986,4.60009,2470.297,2021-11-29T05:20:21Z
2021-11-29T03:21:57Z,42.805,6.029,13.2992,4.60009,2470.32,2021-11-29T05:23:24Z
2021-11-29T03:25:00Z,42.805,6.029,13.2986,4.60009,2470.287,2021-11-29T05:26:27Z
2021-11-29T03:28:03Z,42.805,6.029,13.2986,4.60009,2470.31,2021-11-29T05:29:31Z
2021-11-29T03:31:07Z,42.805,6.029,13.2987,4.60008,2470.297,2021-11-29T05:32:34Z
2021-11-29T03:34:10Z,42.805,6.029,13.2986,4.60009,2470.287,2021-11-29T05:35:37Z
2021-11-29T03:37:13Z,42.805,6.029,13.2989,4.60009,2470.273,2021-11-29T05:38:40Z
2021-11-29T03:40:16Z,42.805,6.029,13.2988,4.60008,2470.273,2021-11-29T05:41:43Z
2021-11-29T03:43:19Z,42.805,6.029,13.2989,4.60009,2470.32,2021-11-29T05:44:46Z
2021-11-29T03:46:22Z,42.805,6.029,13.2990,4.60008,2470.31,2021-11-29T05:47:49Z
2021-11-29T03:49:25Z,42.805,6.029,13.2990,4.60008,2470.273,2021-11-29T05:50:52Z
2021-11-29T03:52:28Z,42.805,6.029,13.2988,4.60008,2470.334,2021-11-29T05:53:55Z
2021-11-29T03:55:31Z,42.805,6.029,13.2986,4.60008,2470.287,2021-11-29T05:56:59Z
2021-11-29T03:58:35Z,42.805,6.029,13.2993,4.60008,2470.273,2021-11-29T06:00:02Z
2021-11-29T04:01:38Z,42.805,6.029,13.2990,4.60009,2470.297,2021-11-29T06:03:05Z
2021-11-29T04:04:41Z,42.805,6.029,13.2986,4.60009,2470.31,2021-11-29T06:06:08Z
2021-11-29T04:07:44Z,42.805,6.029,13.2993,4.60008,2470.31,2021-11-29T06:09:11Z
2021-11-29T04:10:47Z,42.805,6.029,13.2990,4.60009,2470.297,2021-11-29T06:12:14Z
2021-11-29T04:13:50Z,42.805,6.029,13.2987,4.60007,2470.273,2021-11-29T06:15:17Z
2021-11-29T04:16:53Z,42.805,6.029,13.2993,4.60007,2470.297,2021-11-29T06:18:20Z
2021-11-29T04:19:56Z,42.805,6.029,13.2990,4.60009,2470.283,2021-11-29T06:21:24Z
2021-11-29T04:23:00Z,42.805,6.029,13.2986,4.60007,2470.297,2021-11-29T06:24:27Z
2021-11-29T04:26:03Z,42.805,6.029,13.2988,4.60009,2470.297,2021-11-29T06:27:30Z
2021-11-29T04:29:06Z,42.805,6.029,13.2990,4.60008,2470.297,2021-11-29T06:30:33Z
2021-11-29T04:32:09Z,42.805,6.029,13.2992,4.60007,2470.273,2021-11-29T06:33:36Z
2021-11-29T04:35:12Z,42.805,6.029,13.2984,4.60010,2470.287,2021-11-29T06:36:39Z
2021-11-29T04:38:15Z,42.805,6.029,13.2987,4.60007,2470.287,2021-11-29T06:39:42Z
2021-11-29T04:41:18Z,42.805,6.029,13.2988,4.60008,2470.273,2021-11-29T06:42:45Z
2021-11-29T04:44:21Z,42.805,6.029,13.2987,4.60008,2470.31,2021-11-29T06:45:49Z
2021-11-29T04:47:25Z,42.805,6.029,13.2986,4.60008,2470.31,2021-11-29T06:48:52Z
2021-11-29T04:50:28Z,42.805,6.029,13.2987,4.60008,2470.25,2021-11-29T06:51:55Z
2021-11-29T04:53:31Z,42.805,6.029,13.2991,4.60008,2470.287,2021-11-29T06:54:58Z
2021-11-29T04:56:34Z,42.805,6.029,13.2986,4.60008,2470.31,2021-11-29T06:58:01Z
2021-11-29T04:59:37Z,42.805,6.029,13.2990,4.60008,2470.264,2021-11-29T07:01:04Z
2021-11-29T05:02:40Z,42.805,6.029,13.2986,4.60008,2470.25,2021-11-29T07:04:07Z
2021-11-29T05:05:43Z,42.805,6.029,13.2986,4.60009,2470.25,2021-11-29T07:07:10Z
2021-11-29T05:08:46Z,42.805,6.029,13.2986,4.60009,2470.273,2021-11-29T07:10:14Z
2021-11-29T05:11:50Z,42.805,6.029,13.2991,4.60008,2470.273,2021-11-29T07:13:17Z
2021-11-29T05:14:53Z,42.805,6.029,13.2991,4.60008,2470.264,2021-11-29T07:16:20Z
2021-11-29T05:17:56Z,42.805,6.029,13.2991,4.60009,2470.287,2021-11-29T07:19:23Z
2021-11-29T05:20:59Z,42.805,6.029,13.2990,4.60008,2470.287,2021-11-29T07:22:26Z
2021-11-29T05:24:02Z,42.805,6.029,13.2993,4.60009,2470.297,2021-11-29T07:25:29Z
2021-11-29T05:27:05Z,42.805,6.029,13.2991,4.60009,2470.287,2021-11-29T07:28:32Z
2021-11-29T05:30:08Z,42.805,6.029,13.2993,4.60011,2470.25,2021-11-29T07:31:35Z
2021-11-29T05:33:11Z,42.805,6.029,13.2991,4.60011,2470.273,2021-11-29T07:34:39Z
2021-11-29T05:36:15Z,42.805,6.029,13.2989,4.60011,2470.273,2021-11-29T07:37:42Z
2021-11-29T05:39:18Z,42.805,6.029,13.2988,4.60009,2470.273,2021-11-29T07:40:45Z
2021-11-29T05:42:21Z,42.805,6.029,13.2989,4.60010,2470.287,2021-11-29T07:43:48Z
2021-11-29T05:45:24Z,42.805,6.029,13.2987,4.60009,2470.287,2021-11-29T07:46:51Z
2021-11-29T05:48:27Z,42.805,6.029,13.2988,4.60008,2470.287,2021-11-29T07:49:54Z
2021-11-29T05:51:30Z,42.805,6.029,13.2992,4.60008,2470.287,2021-11-29T07:52:57Z
2021-11-29T05:54:33Z,42.805,6.029,13.2992,4.60009,2470.287,2021-11-29T07:56:00Z
2021-11-29T05:57:36Z,42.805,6.029,13.2991,4.60010,2470.273,2021-11-29T07:59:04Z
2021-11-29T06:00:40Z,42.805,6.029,13.2990,4.60009,2470.273,2021-11-29T08:02:07Z
2021-11-29T06:03:43Z,42.805,6.029,13.2987,4.60008,2470.264,2021-11-29T08:05:10Z
2021-11-29T06:06:46Z,42.805,6.029,13.2991,4.60010,2470.273,2021-11-29T08:08:13Z
2021-11-29T06:09:49Z,42.805,6.029,13.2988,4.60008,2470.273,2021-11-29T08:11:16Z
2021-11-29T06:12:52Z,42.805,6.029,13.2990,4.60009,2470.31,2021-11-29T08:14:19Z
2021-11-29T06:15:55Z,42.805,6.029,13.2990,4.60009,2470.297,2021-11-29T08:17:22Z
2021-11-29T06:18:58Z,42.805,6.029,13.2990,4.60009,2470.273,2021-11-29T08:20:25Z
2021-11-29T06:22:01Z,42.805,6.029,13.2990,4.60009,2470.273,2021-11-29T08:23:29Z
2021-11-29T06:25:05Z,42.805,6.029,13.2990,4.60009,2470.26,2021-11-29T08:26:32Z
2021-11-29T06:28:08Z,42.805,6.029,13.2990,4.60009,2470.287,2021-11-29T08:29:35Z
2021-11-29T06:31:11Z,42.805,6.029,13.2989,4.60011,2470.287,2021-11-29T08:32:38Z
2021-11-29T06:34:14Z,42.805,6.029,13.2989,4.60009,2470.25,2021-11-29T08:35:41Z
2021-11-29T06:37:17Z,42.805,6.029,13.2992,4.60009,2470.273,2021-11-29T08:38:44Z
2021-11-29T06:40:20Z,42.805,6.029,13.2990,4.60010,2470.31,2021-11-29T08:41:47Z
2021-11-29T06:43:23Z,42.805,6.029,13.2991,4.60011,2470.236,2021-11-29T08:44:50Z
2021-11-29T06:46:26Z,42.805,6.029,13.2991,4.60009,2470.25,2021-11-29T08:47:54Z
2021-11-29T06:49:30Z,42.805,6.029,13.2990,4.60011,2470.297,2021-11-29T08:50:57Z
2021-11-29T06:52:33Z,42.805,6.029,13.2991,4.60009,2470.287,2021-11-29T08:54:00Z
2021-11-29T06:55:36Z,42.805,6.029,13.2991,4.60009,2470.287,2021-11-29T08:57:03Z
2021-11-29T06:58:39Z,42.805,6.029,13.2990,4.60009,2470.287,2021-11-29T09:00:06Z
2021-11-29T07:01:42Z,42.805,6.029,13.2993,4.60010,2470.287,2021-11-29T09:03:09Z
2021-11-29T07:04:45Z,42.805,6.029,13.2995,4.60010,2470.273,2021-11-29T09:06:12Z
2021-11-29T07:07:48Z,42.805,6.029,13.2990,4.60009,2470.264,2021-11-29T09:09:15Z
2021-11-29T07:10:51Z,42.805,6.029,13.2992,4.60011,2470.287,2021-11-29T09:12:19Z
2021-11-29T07:13:54Z,42.805,6.029,13.2991,4.60009,2470.25,2021-11-29T09:15:22Z
2021-11-29T07:16:58Z,42.805,6.029,13.2993,4.60009,2470.273,2021-11-29T09:18:25Z
2021-11-29T07:20:01Z,42.805,6.029,13.2993,4.60009,2470.236,2021-11-29T09:21:28Z
2021-11-29T07:23:04Z,42.805,6.029,13.2990,4.60011,2470.24,2021-11-29T09:24:31Z
2021-11-29T07:26:07Z,42.805,6.029,13.2987,4.60009,2470.264,2021-11-29T09:27:34Z
2021-11-29T07:29:10Z,42.805,6.029,13.2991,4.60009,2470.24,2021-11-29T09:30:37Z
2021-11-29T07:32:13Z,42.805,6.029,13.2990,4.60009,2470.273,2021-11-29T09:33:40Z
2021-11-29T07:35:16Z,42.805,6.029,13.2991,4.60010,2470.297,2021-11-29T09:36:43Z
2021-11-29T07:38:19Z,42.805,6.029,13.2988,4.60009,2470.264,2021-11-29T09:39:47Z
2021-11-29T07:41:23Z,42.805,6.029,13.2991,4.60009,2470.264,2021-11-29T09:42:50Z
2021-11-29T07:44:26Z,42.805,6.029,13.2990,4.60009,2470.25,2021-11-29T09:45:53Z
2021-11-29T07:47:29Z,42.805,6.029,13.2990,4.60009,2470.273,2021-11-29T09:48:56Z
2021-11-29T07:50:32Z,42.805,6.029,13.2993,4.60009,2470.273,2021-11-29T09:51:59Z
2021-11-29T07:53:35Z,42.805,6.029,13.2990,4.60009,2470.273,2021-11-29T09:55:02Z
2021-11-29T07:56:38Z,42.805,6.029,13.2990,4.60010,2470.25,2021-11-29T09:58:05Z
2021-11-29T07:59:41Z,42.805,6.029,13.2987,4.60009,2470.264,2021-11-29T10:01:08Z
2021-11-29T08:02:44Z,42.805,6.029,13.2987,4.60009,2470.25,2021-11-29T10:04:12Z
2021-11-29T08:05:48Z,42.805,6.029,13.2993,4.60011,2470.287,2021-11-29T10:07:15Z
2021-11-29T08:08:51Z,42.805,6.029,13.2991,4.60010,2470.273,2021-11-29T10:10:18Z
2021-11-29T08:11:54Z,42.805,6.029,13.2989,4.60009,2470.273,2021-11-29T10:13:21Z
2021-11-29T08:14:57Z,42.805,6.029,13.2990,4.60009,2470.273,2021-11-29T10:16:24Z
2021-11-29T08:18:00Z,42.805,6.029,13.2989,4.60009,2470.273,2021-11-29T10:19:27Z
2021-11-29T08:21:03Z,42.805,6.029,13.2992,4.60009,2470.264,2021-11-29T10:22:30Z
2021-11-29T08:24:06Z,42.805,6.029,13.2987,4.60009,2470.227,2021-11-29T10:25:34Z
2021-11-29T08:27:10Z,42.805,6.029,13.2988,4.60009,2470.287,2021-11-29T10:28:37Z
2021-11-29T08:30:13Z,42.805,6.029,13.2990,4.60009,2470.264,2021-11-29T10:31:40Z
2021-11-29T08:33:16Z,42.805,6.029,13.2993,4.60010,2470.25,2021-11-29T10:34:43Z
2021-11-29T08:36:19Z,42.805,6.029,13.2987,4.60008,2470.25,2021-11-29T10:37:46Z
2021-11-29T08:39:22Z,42.805,6.029,13.2988,4.60009,2470.25,2021-11-29T10:40:49Z
2021-11-29T08:42:25Z,42.805,6.029,13.2986,4.60008,2470.264,2021-11-29T10:43:52Z
2021-11-29T08:45:28Z,42.805,6.029,13.2986,4.60008,2470.297,2021-11-29T10:46:55Z
2021-11-29T08:48:31Z,42.805,6.029,13.2983,4.60009,2470.264,2021-11-29T10:49:59Z
2021-11-29T08:51:35Z,42.805,6.029,13.2991,4.60008,2470.273,2021-11-29T10:53:02Z
2021-11-29T08:54:38Z,42.805,6.029,13.2986,4.60009,2470.25,2021-11-29T10:56:05Z
2021-11-29T08:57:41Z,42.805,6.029,13.2992,4.60009,2470.273,2021-11-29T10:59:08Z
2021-11-29T09:00:44Z,42.805,6.029,13.2989,4.60009,2470.227,2021-11-29T11:02:11Z
2021-11-29T09:03:47Z,42.805,6.029,13.2988,4.60008,2470.264,2021-11-29T11:05:14Z
2021-11-29T09:06:50Z,42.805,6.029,13.2989,4.60008,2470.25,2021-11-29T11:08:17Z
2021-11-29T09:09:53Z,42.805,6.029,13.2988,4.60008,2470.273,2021-11-29T11:11:20Z
2021-11-29T09:12:56Z,42.805,6.029,13.2988,4.60008,2470.273,2021-11-29T11:14:24Z
2021-11-29T09:16:00Z,42.805,6.029,13.2990,4.60008,2470.264,2021-11-29T11:17:27Z
2021-11-29T09:19:03Z,42.805,6.029,13.2990,4.60008,2470.25,2021-11-29T11:20:30Z
2021-11-29T09:22:06Z,42.805,6.029,13.2988,4.60007,2470.297,2021-11-29T11:23:33Z
2021-11-29T09:25:09Z,42.805,6.029,13.2991,4.60009,2470.273,2021-11-29T11:26:36Z
2021-11-29T09:28:12Z,42.805,6.029,13.2986,4.60009,2470.273,2021-11-29T11:29:39Z
2021-11-29T09:31:15Z,42.805,6.029,13.2989,4.60007,2470.287,2021-11-29T11:32:42Z
2021-11-29T09:34:18Z,42.805,6.029,13.2990,4.60009,2470.273,2021-11-29T11:35:45Z
2021-11-29T09:37:21Z,42.805,6.029,13.2990,4.60007,2470.31,2021-11-29T11:38:49Z
2021-11-29T09:40:25Z,42.805,6.029,13.2989,4.60008,2470.287,2021-11-29T11:41:52Z
2021-11-29T09:43:28Z,42.805,6.029,13.2988,4.60009,2470.297,2021-11-29T11:44:55Z
2021-11-29T09:46:31Z,42.805,6.029,13.2988,4.60009,2470.31,2021-11-29T11:47:58Z
2021-11-29T09:49:34Z,42.805,6.029,13.2987,4.60007,2470.287,2021-11-29T11:51:01Z
2021-11-29T09:52:37Z,42.805,6.029,13.2991,4.60007,2470.297,2021-11-29T11:54:04Z
2021-11-29T09:55:40Z,42.805,6.029,13.2990,4.60009,2470.287,2021-11-29T11:57:07Z
2021-11-29T09:58:43Z,42.805,6.029,13.2987,4.60009,2470.297,2021-11-29T12:00:10Z
2021-11-29T10:01:46Z,42.805,6.029,13.2991,4.60008,2470.287,2021-11-29T12:03:14Z
2021-11-29T10:04:50Z,42.805,6.029,13.2990,4.60009,2470.25,2021-11-29T12:06:17Z
2021-11-29T10:07:53Z,42.805,6.029,13.2988,4.60009,2470.273,2021-11-29T12:09:20Z
2021-11-29T10:10:56Z,42.805,6.029,13.2991,4.60009,2470.32,2021-11-29T12:12:23Z
2021-11-29T10:13:59Z,42.805,6.029,13.2991,4.60008,2470.273,2021-11-29T12:15:26Z
2021-11-29T10:17:02Z,42.805,6.029,13.2987,4.60008,2470.297,2021-11-29T12:18:29Z
2021-11-29T10:20:05Z,42.805,6.029,13.2989,4.60008,2470.287,2021-11-29T12:21:32Z
2021-11-29T10:23:08Z,42.805,6.029,13.2990,4.60008,2470.297,2021-11-29T12:24:35Z
2021-11-29T10:26:12Z,42.805,6.029,13.2990,4.60009,2470.297,2021-11-29T12:27:39Z
2021-11-29T10:29:15Z,42.805,6.029,13.2986,4.60009,2470.31,2021-11-29T12:30:42Z
2021-11-29T10:32:18Z,42.805,6.029,13.2990,4.60008,2470.287,2021-11-29T12:33:45Z
2021-11-29T10:35:21Z,42.805,6.029,13.2991,4.60009,2470.273,2021-11-29T12:36:48Z
2021-11-29T10:38:24Z,42.805,6.029,13.2988,4.60009,2470.25,2021-11-29T12:39:51Z
2021-11-29T10:41:27Z,42.805,6.029,13.2989,4.60009,2470.264,2021-11-29T12:42:54Z
2021-11-29T10:44:30Z,42.805,6.029,13.2990,4.60009,2470.334,2021-11-29T12:45:57Z
2021-11-29T10:47:33Z,42.805,6.029,13.2986,4.60009,2470.297,2021-11-29T12:49:01Z
2021-11-29T10:50:37Z,42.805,6.029,13.2990,4.60009,2470.32,2021-11-29T12:52:04Z
2021-11-29T10:53:40Z,42.805,6.029,13.2989,4.60008,2470.297,2021-11-29T12:55:07Z
2021-11-29T10:56:43Z,42.805,6.029,13.2987,4.60008,2470.31,2021-11-29T12:58:10Z
2021-11-29T10:59:46Z,42.805,6.029,13.2992,4.60009,2470.297,2021-11-29T13:01:13Z
2021-11-29T11:02:49Z,42.805,6.029,13.2987,4.60009,2470.334,2021-11-29T13:04:16Z
2021-11-29T11:05:52Z,42.805,6.029,13.2990,4.60009,2470.32,2021-11-29T13:07:19Z
2021-11-29T11:08:55Z,42.805,6.029,13.2993,4.60009,2470.297,2021-11-29T13:10:22Z
2021-11-29T11:11:58Z,42.805,6.029,13.2987,4.60010,2470.334,2021-11-29T13:13:26Z
2021-11-29T11:15:01Z,42.805,6.029,13.2989,4.60009,2470.297,2021-11-29T13:16:29Z
2021-11-29T11:18:05Z,42.805,6.029,13.2990,4.60009,2470.297,2021-11-29T13:19:32Z
2021-11-29T11:21:08Z,42.805,6.029,13.2988,4.60009,2470.297,2021-11-29T13:22:35Z
2021-11-29T11:24:11Z,42.805,6.029,13.2991,4.60009,2470.32,2021-11-29T13:25:38Z
2021-11-29T11:27:14Z,42.805,6.029,13.2992,4.60009,2470.297,2021-11-29T13:28:41Z
2021-11-29T11:30:17Z,42.805,6.029,13.2991,4.60009,2470.297,2021-11-29T13:31:44Z
2021-11-29T11:33:20Z,42.805,6.029,13.2987,4.60009,2470.297,2021-11-29T13:34:47Z
2021-11-29T11:36:23Z,42.805,6.029,13.2986,4.60009,2470.334,2021-11-29T13:37:51Z
2021-11-29T11:39:27Z,42.805,6.029,13.2990,4.60009,2470.297,2021-11-29T13:40:54Z
2021-11-29T11:42:30Z,42.805,6.029,13.2990,4.60009,2470.334,2021-11-29T13:43:57Z
2021-11-29T11:45:33Z,42.805,6.029,13.2991,4.60009,2470.334,2021-11-29T13:47:00Z
2021-11-29T11:48:36Z,42.805,6.029,13.2985,4.60009,2470.343,2021-11-29T13:50:03Z
2021-11-29T11:51:39Z,42.805,6.029,13.2991,4.60009,2470.32,2021-11-29T13:53:06Z
2021-11-29T11:54:42Z,42.805,6.029,13.2991,4.60009,2470.32,2021-11-29T13:56:09Z
2021-11-29T11:57:45Z,42.805,6.029,13.2986,4.60010,2470.343,2021-11-29T13:59:12Z
2021-11-29T12:00:48Z,42.805,6.029,13.2991,4.60009,2470.334,2021-11-29T14:02:16Z
2021-11-29T12:03:52Z,42.805,6.029,13.2991,4.60009,2470.343,2021-11-29T14:05:19Z
2021-11-29T12:06:55Z,42.805,6.029,13.2991,4.60009,2470.343,2021-11-29T14:08:22Z
2021-11-29T12:09:58Z,42.805,6.029,13.2990,4.60009,2470.334,2021-11-29T14:11:25Z
2021-11-29T12:13:01Z,42.805,6.029,13.2986,4.60009,2470.334,2021-11-29T14:14:28Z
2021-11-29T12:16:04Z,42.805,6.029,13.2987,4.60010,2470.32,2021-11-29T14:17:31Z
2021-11-29T12:19:07Z,42.805,6.029,13.2988,4.60008,2470.343,2021-11-29T14:20:34Z
2021-11-29T12:22:10Z,42.805,6.029,13.2986,4.60009,2470.343,2021-11-29T14:23:37Z
2021-11-29T12:25:13Z,42.805,6.029,13.2990,4.60010,2470.366,2021-11-29T14:26:41Z
2021-11-29T12:28:17Z,42.805,6.029,13.2987,4.60009,2470.334,2021-11-29T14:29:44Z
2021-11-29T12:31:20Z,42.805,6.029,13.2994,4.60008,2470.343,2021-11-29T14:32:47Z
2021-11-29T12:34:23Z,42.805,6.029,13.2991,4.60009,2470.366,2021-11-29T14:35:50Z
2021-11-29T12:37:26Z,42.805,6.029,13.2991,4.60009,2470.38,2021-11-29T14:38:53Z
2021-11-29T12:40:29Z,42.805,6.029,13.2991,4.60009,2470.366,2021-11-29T14:41:56Z
2021-11-29T12:43:32Z,42.805,6.029,13.2989,4.60009,2470.357,2021-11-29T14:44:59Z
2021-11-29T12:46:35Z,42.805,6.029,13.2990,4.60009,2470.38,2021-11-29T14:48:02Z
2021-11-29T12:49:38Z,42.805,6.029,13.2991,4.60009,2470.357,2021-11-29T14:51:06Z
2021-11-29T12:52:42Z,42.805,6.029,13.2990,4.60009,2470.366,2021-11-29T14:54:09Z
2021-11-29T12:55:45Z,42.805,6.029,13.2991,4.60010,2470.366,2021-11-29T14:57:12Z
2021-11-29T12:58:48Z,42.805,6.029,13.2989,4.60010,2470.357,2021-11-29T15:00:15Z
2021-11-29T13:01:51Z,42.805,6.029,13.2988,4.60014,2470.38,2021-11-29T15:03:18Z
2021-11-29T13:04:54Z,42.805,6.029,13.2989,4.60011,2470.357,2021-11-29T15:06:21Z
2021-11-29T13:07:57Z,42.805,6.029,13.2990,4.60009,2470.404,2021-11-29T15:09:24Z
2021-11-29T13:11:00Z,42.805,6.029,13.2992,4.60010,2470.366,2021-11-29T15:12:27Z
2021-11-29T13:14:03Z,42.805,6.029,13.2987,4.60009,2470.404,2021-11-29T15:15:31Z
2021-11-29T13:17:07Z,42.805,6.029,13.2993,4.60008,2470.404,2021-11-29T15:18:34Z
2021-11-29T13:20:10Z,42.805,6.029,13.2987,4.60009,2470.39,2021-11-29T15:21:37Z
2021-11-29T13:23:13Z,42.805,6.029,13.2992,4.60010,2470.39,2021-11-29T15:24:40Z
2021-11-29T13:26:16Z,42.805,6.029,13.2991,4.60014,2470.404,2021-11-29T15:27:43Z
2021-11-29T13:29:19Z,42.805,6.029,13.2989,4.60010,2470.413,2021-11-29T15:30:46Z
2021-11-29T13:32:22Z,42.805,6.029,13.2988,4.60009,2470.404,2021-11-29T15:33:49Z
2021-11-29T13:35:25Z,42.805,6.029,13.2991,4.60009,2470.38,2021-11-29T15:36:52Z
2021-11-29T13:38:28Z,42.805,6.029,13.2990,4.60009,2470.413,2021-11-29T15:39:56Z
2021-11-29T13:41:32Z,42.805,6.029,13.2991,4.60009,2470.343,2021-11-29T15:42:59Z
2021-11-29T13:44:35Z,42.805,6.029,13.2990,4.60010,2470.404,2021-11-29T15:46:02Z
2021-11-29T13:47:38Z,42.805,6.029,13.2990,4.60010,2470.366,2021-11-29T15:49:05Z
2021-11-29T13:50:41Z,42.805,6.029,13.2988,4.60011,2470.38,2021-11-29T15:52:08Z
2021-11-29T13:53:44Z,42.805,6.029,13.2991,4.60009,2470.404,2021-11-29T15:55:11Z
2021-11-29T13:56:47Z,42.805,6.029,13.2990,4.60009,2470.427,2021-11-29T15:58:14Z
2021-11-29T13:59:50Z,42.805,6.029,13.2991,4.60010,2470.404,2021-11-29T16:01:18Z
2021-11-29T14:02:53Z,42.805,6.029,13.2991,4.60013,2470.413,2021-11-29T16:04:21Z
2021-11-29T14:05:57Z,42.805,6.029,13.2991,4.60009,2470.413,2021-11-29T16:07:24Z
2021-11-29T14:09:00Z,42.805,6.029,13.2991,4.60009,2470.427,2021-11-29T16:10:27Z
2021-11-29T14:12:03Z,42.805,6.029,13.2994,4.60011,2470.427,2021-11-29T16:13:30Z
2021-11-29T14:15:06Z,42.805,6.029,13.2990,4.60010,2470.404,2021-11-29T16:16:33Z
2021-11-29T14:18:09Z,42.805,6.029,13.2990,4.60010,2470.39,2021-11-29T16:19:36Z
2021-11-29T14:21:12Z,42.805,6.029,13.2991,4.60013,2470.45,2021-11-29T16:22:39Z
2021-11-29T14:24:15Z,42.805,6.029,13.2991,4.60010,2470.413,2021-11-29T16:25:43Z
2021-11-29T14:27:19Z,42.805,6.029,13.2992,4.60011,2470.427,2021-11-29T16:28:46Z
2021-11-29T14:30:22Z,42.805,6.029,13.2988,4.60010,2470.427,2021-11-29T16:31:49Z
2021-11-29T14:33:25Z,42.805,6.029,13.2990,4.60011,2470.413,2021-11-29T16:34:52Z
2021-11-29T14:36:28Z,42.805,6.029,13.2990,4.60009,2470.413,2021-11-29T16:37:55Z
2021-11-29T14:39:31Z,42.805,6.029,13.2991,4.60012,2470.404,2021-11-29T16:40:58Z
2021-11-29T14:42:34Z,42.805,6.029,13.2991,4.60010,2470.427,2021-11-29T16:44:01Z
2021-11-29T14:45:37Z,42.805,6.029,13.2992,4.60010,2470.437,2021-11-29T16:47:04Z
2021-11-29T14:48:40Z,42.805,6.029,13.2990,4.60009,2470.437,2021-11-29T16:50:08Z
2021-11-29T14:51:44Z,42.805,6.029,13.2993,4.60011,2470.413,2021-11-29T16:53:11Z
2021-11-29T14:54:47Z,42.805,6.029,13.2988,4.60011,2470.427,2021-11-29T16:56:14Z
2021-11-29T14:57:50Z,42.805,6.029,13.2990,4.60009,2470.413,2021-11-29T16:59:17Z
2021-11-29T15:00:53Z,42.805,6.029,13.2992,4.60009,2470.413,2021-11-29T17:02:20Z